一网星座-0241星 (ONEWEB-0241 )

导读

ONEWEB-0241是英国所属的低轨通信卫星,隶属于OneWeb全球卫星互联网星座,于2021年5月28日发射升空。作为OneWeb星座组网的组成单元,它承担着为全球提供高速宽带互联网接入服务的任务,尤其面向偏远地区、航空航海等传统网络覆盖盲区填补连接缺口,是全球低轨卫星通信网络建设的重要节点,助力天地一体化通信网络的构建。

基本信息
目录编号:
48773
目录名称:
ONEWEB-0241
国际标识:
2021-045G
轨道中心:
EARTH
卫星名称:
一网星座-0241星
卫星全名:
一网星座-0241星 (ONEWEB-0241 )
卫星状态:
在轨 (已飞行1843 天)
发射日期:
2021-05-28 UTC
国别 :
英国 (GB)
星等 :
--
轨道信息
数据来源 国际轨道数据 AOE轨道数据
星历时间 2026-06-14T02:18:23+0800
15小时前
查看轨道信息
2026-06-14T04:00:00+0800
14小时前
查看轨道信息
半长轴 7579.91km 7579.898km
偏心率 0.0001782 0.0001572
轨道倾角 87.900° 87.900°
近地点辐角 112.611° 109.807°
升交点赤经 259.889° 259.874°
平近点角 247.521° 224.325°
近地点 1200.422km 1200.569km
远地点 1203.124km 1202.953km
周期 109.460分钟 109.460分钟
每日圈数 13.155482 13.155513
详细信息
平衡模式:
三轴稳定
覆盖范围:
全球
运营商:
一网卫星公司
运营商所在国:
英国
制造商(研发单位):
一网卫星公司
制造商所在国:
英国
使用方式:
暂无
卫星简介
OneWeb卫星网络由648颗重约125公斤的微型卫星组成,运行在1200公里的轨道上。 每颗卫星都能够提供至少每秒8千兆位的吞吐量,以使用其高吞吐量的Ku频段有效载荷为家庭和移动平台提供互联网接入。该卫星仍在工作。
2D轨道图
3D轨道图
轨道高度分析图
轨道倾角分析图
轨道综合分析图
查看轨道综合分析图